Guatemala City, Guatemala

1:16 PM CST on February 26, 2017 (GMT -0600)
La Aurora International | | Change Station

Elev 4885 ft 14.58 °N, 90.52 °W | Updated 16 minutes ago

Partly Cloudy
Partly Cloudy
77 °F
Feels Like 77 °F
N
12
Wind Variable Wind from NNE

Today
High -- | Low -- °F
--% Chance of Precip.
Yesterday
High -- | Low -- °F
Precip. -- in
Pressure 30.27 in
Visibility 6.2 miles
Clouds Few 1800 ft
Dew Point 55 °F
Humidity 47%
Rainfall 0.00 in
Snow Depth Not available.
6:20 AM 6:09 PM
New Moon, 0% visible
METAR MGGT 261900Z 02010KT 9999 FEW018CB 25/13 Q1025 A3027 CB/TCU SE/SSE
Pressure 30.27 in
Visibility 6.2 miles
Clouds Few 1800 ft
Dew Point 55 °F
Humidity 47%
Rainfall 0.00 in
Snow Depth Not available.
6:20 AM 6:09 PM
New Moon, 0% visible
METAR MGGT 261900Z 02010KT 9999 FEW018CB 25/13 Q1025 A3027 CB/TCU SE/SSE

Get Your Daily Forecast Email!

Thanks for signing up!

Be on the lookout for a verification email in your inbox.

You'll start receiving the daily forecast at 8 AM.

×

10-Day Weather Forecast

No radar image for this location.
×

Almanac

Astronomy

Feb. 26, 2017 Rise Set
Actual Time
Civil Twilight
Nautical Twilight
Astronomical Twilight
Moon
Length of Visible Light
Length of Day
Tomorrow will be .
, % of the Moon is Illuminated

Today's Extremes

Country Highs Country Lows

Community

WunderPhotos

Upload Photos

1,962,540 photos uploaded!

WunderBlog® & News

Nearby

Air Quality

  Air Quality AQ Index Pollutant
Not available.

Snow Depth

Station Depth Elevation

Earthquake Activity

City Distance Mag. Time & Date
Minimum magnitude displayed is 2.5.

Coastal Water Temperatures

Place Temperature

Stations

Nearby Weather Stations

Station Location Temp. Windchill Dew Point Humidity Wind Precip. Elev Updated Type